Weather History for KMGJ - October, 2012

Change the Weather History Date:

Sunday, October 28, 2012

  Actual Average (KPOU) Record (KPOU)
Temperature  
Mean Temperature 55 °F 47 °F  
Max Temperature 57 °F 59 °F 78 °F (1971)
Min Temperature 53 °F 35 °F 19 °F (1976)
Degree Days  
Heating Degree Days 10 18  
Month to date heating degree days 382  
Since 1 July heating degree days 522  
Cooling Degree Days 0 0  
Month to date cooling degree days 0  
Year to date cooling degree days 668  
Growing Degree Days 5 (Base 50)    
Moisture  
Dew Point 47 °F    
Average Humidity 72    
Maximum Humidity 90    
Minimum Humidity 59    
Precipitation  
Precipitation 0.00 in 0.13 in 1.20 in (2008)
Month to date precipitation 4.07  
Year to date precipitation 39.13  
Sea Level Pressure  
Sea Level Pressure 29.83 in    
Wind  
Wind Speed 11 mph (NE)    
Max Wind Speed 18 mph    
Max Gust Speed 25 mph    
Visibility 10 miles    
Events      
T = Trace of Precipitation, MM = Missing Value Source: NWS Daily Summary

Daily Weather History Graph

Daily Weather History Graph

Search for Another Location

Airport or City:

Trip Planner

Search our weather history database for the weather conditions in past years. The results will help you decide how hot, cold, wet, or windy it might be!

Date:

Astronomy

Oct. 28, 2012 Rise Set
Actual Time 7:24 AM EDT 5:56 PM EDT
Civil Twilight 6:55 AM EDT 6:24 PM EDT
Nautical Twilight 6:23 AM EDT 6:57 PM EDT
Astronomical Twilight 5:51 AM EDT 7:29 PM EDT
Moon 5:12 PM EDT (10/28) 6:14 AM EDT (10/28)
Length of Visible Light 11h 29m
Length of Day
10h 31m
Waxing Gibbous, 99% of the Moon is Illuminated
Oct 28
Waxing Gibbous
Oct 29
Full
Nov 6
Last Quarter
Nov 13
New
Nov 20
First Quarter

Hourly Weather History & Observations

Time (EDT) Temp. Dew Point Humidity Pressure Visibility Wind Dir Wind Speed Gust Speed Precip Events Conditions
12:54 AM 54.0 °F 51.1 °F 90% 29.94 in 7.0 mi NNE 6.9 mph - N/A   Scattered Clouds
1:54 AM 55.0 °F 52.0 °F 89% 29.93 in 7.0 mi NNE 8.1 mph - N/A   Mostly Cloudy
2:54 AM 55.0 °F 52.0 °F 89% 29.92 in 8.0 mi NNE 9.2 mph - N/A   Scattered Clouds
3:54 AM 55.0 °F 51.1 °F 86% 29.91 in 10.0 mi NE 6.9 mph - N/A   Partly Cloudy
4:54 AM 55.9 °F 52.0 °F 87% 29.91 in 10.0 mi NE 9.2 mph - N/A   Overcast
5:54 AM 55.0 °F 51.1 °F 86% 29.91 in 10.0 mi NNE 11.5 mph - N/A   Scattered Clouds
6:54 AM 55.0 °F 50.0 °F 83% 29.90 in 10.0 mi NNE 9.2 mph - N/A   Clear
7:54 AM 55.0 °F 48.9 °F 80% 29.91 in 10.0 mi NNE 8.1 mph - N/A   Clear
9:54 AM 55.0 °F 42.1 °F 62% 29.91 in 10.0 mi NE 12.7 mph - N/A   Clear
10:54 AM 55.0 °F 41.0 °F 59% 29.91 in 10.0 mi ENE 12.7 mph 21.9 mph N/A   Clear
11:33 AM 55.4 °F 42.8 °F 63% 29.90 in 10.0 mi NE 12.7 mph - N/A   Overcast
11:54 AM 55.9 °F 43.0 °F 62% 29.90 in 10.0 mi NE 15.0 mph 19.6 mph N/A   Overcast
12:50 PM 57.2 °F 46.4 °F 67% 29.86 in 10.0 mi NE 12.7 mph - N/A   Overcast
12:54 PM 57.0 °F 46.0 °F 67% 29.86 in 10.0 mi NE 13.8 mph - N/A   Overcast
1:08 PM 57.2 °F 46.4 °F 67% 29.85 in 10.0 mi NE 10.4 mph 19.6 mph N/A   Overcast
1:54 PM 57.0 °F 46.0 °F 67% 29.83 in 10.0 mi ENE 16.1 mph 21.9 mph N/A   Overcast
2:35 PM 57.2 °F 46.4 °F 67% 29.81 in 10.0 mi ENE 15.0 mph 21.9 mph N/A   Overcast
2:54 PM 57.0 °F 46.0 °F 67% 29.79 in 10.0 mi NE 18.4 mph 24.2 mph N/A   Overcast
3:47 PM 57.2 °F 46.4 °F 67% 29.80 in 10.0 mi NE 12.7 mph 25.3 mph N/A   Overcast
3:54 PM 57.0 °F 46.0 °F 67% 29.81 in 10.0 mi NE 13.8 mph - N/A   Overcast
4:54 PM 55.9 °F 46.9 °F 72% 29.81 in 10.0 mi NE 13.8 mph 17.3 mph N/A   Overcast
5:18 PM 55.4 °F 46.4 °F 72% 29.80 in 10.0 mi NE 12.7 mph 18.4 mph N/A   Overcast
5:29 PM 55.4 °F 46.4 °F 72% 29.80 in 10.0 mi NE 12.7 mph - N/A   Overcast
5:54 PM 55.9 °F 46.0 °F 69% 29.80 in 10.0 mi NE 12.7 mph - N/A   Overcast
6:21 PM 55.4 °F 46.4 °F 72% 29.81 in 10.0 mi NE 11.5 mph - N/A   Unknown
6:54 PM 55.9 °F 46.0 °F 69% 29.80 in 10.0 mi NE 12.7 mph - N/A   Overcast
7:11 PM 55.4 °F 46.4 °F 72% 29.79 in 10.0 mi NNE 12.7 mph 20.7 mph N/A   Overcast
7:25 PM 55.4 °F 46.4 °F 72% 29.79 in 10.0 mi NNE 15.0 mph - N/A   Overcast
7:50 PM 55.4 °F 46.4 °F 72% 29.78 in 10.0 mi NE 15.0 mph 23.0 mph N/A   Overcast
7:54 PM 55.0 °F 46.0 °F 72% 29.78 in 10.0 mi NNE 16.1 mph 21.9 mph N/A   Overcast
8:54 PM 55.0 °F 46.0 °F 72% 29.77 in 10.0 mi NNE 13.8 mph - N/A   Overcast
9:54 PM 55.0 °F 46.0 °F 72% 29.75 in 10.0 mi NE 12.7 mph - N/A   Overcast
10:07 PM 55.4 °F 46.4 °F 72% 29.75 in 10.0 mi NNE 13.8 mph - N/A   Overcast
10:54 PM 55.0 °F 45.0 °F 69% 29.74 in 10.0 mi NE 13.8 mph 23.0 mph N/A   Overcast
11:03 PM 55.4 °F 44.6 °F 67% 29.73 in 10.0 mi NNE 9.2 mph 20.7 mph N/A   Overcast
11:15 PM 53.6 °F 44.6 °F 72% 29.72 in 10.0 mi NE 15.0 mph 20.7 mph N/A   Overcast
11:25 PM 53.6 °F 44.6 °F 72% 29.72 in 10.0 mi NE 9.2 mph 20.7 mph N/A   Overcast
11:54 PM 54.0 °F 44.1 °F 69% 29.72 in 10.0 mi NE 15.0 mph 21.9 mph N/A   Overcast